FENGYUN 1C DEB, 30761

Orbit data source: Space-Track

FENGYUN 1C DEB, 30761 is space debris in SSO originally from a launch on Mon, 10 May 1999 UTC launched from the Taiyaun Space Center, China (TSC). Fengyun 1C debris stems from the Chinese weather satellite Fengyun-1C, which was intentionally destroyed by a Chinese anti-satellite missile in 2007. This event dramatically increased the amount of space debris, with thousands of trackable fragments posing hazards to satellites and human spaceflight. The Fengyun 1C debris cloud has become a focal point in discussions about space sustainability and the need for international regulations to prevent the creation of new debris.

Loading next visibility...
Identifier
30761, 1999-025ATX
Orbit
SSO
Country
Flag of CNCN / PRC
Related business
Manufacturer
Unknown
Mission
Spacecraft
Bus & Motor
Unknown
Mass
Unknown
Launch date (UTC)
1999-05-10 (27 years ago)
Launch vehicle
Unknown
Launch site
Taiyaun Space Center, China (TSC)
Object type
Payload
Rocket body
Debris
Shape & HBR
Unknown shape, 0.1 m
Radar Cross Section
Medium (>0.1 m² and <1 m²)

Expand to show TLE details & history
Last TLE update: 1 day ago

TLE from 1 day ago
0 FENGYUN 1C DEB
1 30761U 99025ATX 26235.54154912  .00001464  00000-0  49198-3 0  9990
2 30761  98.9769 177.1492 0082216 288.6955  70.5319 14.36917608 13868
Epoch: 2026-08-23T12:59Z
TLE epoch observation values (Epoch: 2026-08-23T12:59:49.843Z)
Latitude
-0.00007°
Longitude
10.35541°
Altitude
752.474 km
Speed
7.488 km/s
True Right ascension
11h 48m 35s
True Declination
0° 00' 00"
Sunlit
Object was in daylight at epoch
Visualization orbit readout
Latitude
Unknown
Longitude
Unknown
Altitude
Unknown
Speed
Unknown
Apparent Right ascension
Unknown
Apparent Declination
Unknown
Sunlit
N/A
Visualization observer readout
Local Sidereal Time
04:59:09
Azimuth
Unknown
Elevation
Unknown
Doppler factor
Unknown
Orbital elements
Apogee altitude
824.585 km
Perigee altitude
707.115 km
Semi-major axis
7,143.987 km
Eccentricity
0.00822
Inclination
98.9769°
RAAN
177.1492°
Arg. of periapsis
288.6955°
True anomaly
71.42318°
Mean anomaly
70.5319°
Eccentric anomaly
70.97724°
Mean motion
3.59445 °/min
Orbital period
100.15 mins
BSTAR
0.00049198
Loading maneuver chart data...
Computing Atmospheric mass density...

Documentation

Showing up to 5 results
|